This demonstration page uses our WeatherBlox Daily Observations layout. Learn more.

Left ArrowRight Arrow

Hourly Observations for June 15, 2017

Temp ( °F °C ) Dew Point ( °F °C ) Humidity (%) Winds ( mph kmh ) Pressure ( in mb ) Visibility ( mi km ) Precip ( " mm )
12:59 am 00:59 Mostly Cloudy 73 22.8 68 20 84 84 SSW 3 6 30.00 1016 7 11 0.00 0.00
1:59 am 01:59 Mostly Cloudy 73 22.8 68 20 84 84 NE 6 9 29.97 1015 7 11 0.00 0.00
2:59 am 02:59 Mostly Cloudy 73 22.8 68 20 84 84 ENE 6 9 29.96 1014 7 11 0.00 0.00
3:59 am 03:59 Mostly Cloudy with Mist and Fog 73 22.8 68 20 84 84 E 7 11 29.94 1014 6 10 0.00 0.00
4:59 am 04:59 Mostly Cloudy with Mist and Fog 72 22.2 68 20 87 87 NE 9 15 29.94 1014 5 8 0.00 0.00
5:59 am 05:59 Cloudy with Mist and Fog 72 22.2 68 20 87 87 Calm 29.96 1014 5 8 0.00 0.00
6:18 am 06:18 Cloudy with Mist and Fog 72 22.2 68 20 87 87 E 6 9 29.97 1015 4 6 0.00 0.00
6:59 am 06:59 Cloudy with Mist and Fog 72 22.2 68 20 87 87 E 3 6 29.96 1015 4 6 0.00 0.00
7:18 am 07:18 Cloudy with Mist and Fog 71 21.7 68 20 90 90 E 5 7 29.97 1015 4 6 0.00 0.00
7:59 am 07:59 Cloudy with Mist and Fog 72 22.2 68 20 87 87 E 5 7 29.97 1015 4 6 0.00 0.00
8:27 am 08:27 Cloudy with Mist and Fog 72 22.2 68 20 87 87 ENE 5 7 29.97 1015 4 6 0.00 0.00
8:48 am 08:48 Cloudy with Mist and Fog 72 22.2 68 20 87 87 Calm 29.97 1015 4 6 0.00 0.00
8:59 am 08:59 Cloudy with Mist and Fog 72 22.2 68 20 87 87 ENE 3 6 29.98 1015 4 6 0.00 0.00
9:59 am 09:59 Cloudy with Mist and Fog 72 22.2 68 20 87 87 ENE 7 11 29.99 1016 5 8 0.00 0.00
10:36 am 10:36 Cloudy with Mist and Fog 72 22.2 68 20 87 87 ENE 7 11 30.00 1016 5 8 0.00 0.00
10:59 am 10:59 Cloudy with Haze 73 22.8 68 20 84 84 NNE 7 11 30.01 1016 5 8 0.00 0.00
11:07 am 11:07 Cloudy with Haze 73 22.8 68 20 84 84 NE 8 13 30.00 1016 5 8 0.00 0.00
11:59 am 11:59 Cloudy with Light Rain 73 22.8 68 20 84 84 NE 9 15 30.00 1016 5 8 0.00 0.03
12:59 pm 12:59 Cloudy with Haze 76 24.4 69 20.6 79 79 ENE 10 17 29.99 1016 6 10 0.00 0.03
1:59 pm 13:59 Cloudy 75 23.9 67 19.4 76 76 ENE 8 13 29.99 1016 7 11 0.00 0.00
2:59 pm 14:59 Cloudy 76 24.4 68 20 77 77 ENE 9 15 29.97 1015 8 13 0.00 0.00
3:59 pm 15:59 Cloudy 76 24.4 68 20 77 77 NE 9 15 29.96 1015 9 14 0.00 0.00
4:42 pm 16:42 Mostly Cloudy 77 25 68 20 74 74 ENE 7 11 29.94 1014 9 14 0.00 0.00
4:59 pm 16:59 Mostly Cloudy 78 25.6 68 20 71 71 VRB 7 11 29.94 1014 9 14 0.00 0.00
5:42 pm 17:42 Mostly Cloudy 77 25 69 20.6 77 77 ENE 10 17 29.94 1014 8 13 0.00 0.00
5:59 pm 17:59 Partly Cloudy 76 24.4 68 20 77 77 ENE 8 13 29.93 1013 8 13 0.00 0.00
6:53 pm 18:53 Mostly Cloudy 75 24 68 20 78 78 E 9 15 29.94 1014 7 11 0.00 0.00
6:59 pm 18:59 Mostly Cloudy with Haze 75 23.9 67 19.4 76 76 E 8 13 29.93 1013 6 10 0.00 0.00
7:59 pm 19:59 Cloudy with Haze 73 22.8 67 19.4 81 81 E 7 11 29.94 1014 6 10 0.00 0.00
8:25 pm 20:25 Cloudy 72 22.2 67 19.4 84 84 E 7 11 29.94 1014 8 13 0.00 0.00
8:59 pm 20:59 Cloudy 72 22.2 67 19.4 84 84 E 7 11 29.93 1014 7 11 0.00 0.00
9:59 pm 21:59 Cloudy 72 22.2 67 19.4 84 84 ENE 3 6 29.95 1014 7 11 0.00 0.00
10:59 pm 22:59 Cloudy 72 22.2 68 20 87 87 VRB 3 6 29.95 1014 7 11 0.00 0.00
11:59 pm 23:59 Cloudy 72 22.2 67 19.4 84 84 ENE 5 7 29.94 1014 7 11 0.00 0.00

Powered by AerisWeather